Home > Weather > Arden-Arcade > Past weeks

Flag for USA Weather for the Past 2 Weeks in Arden-Arcade, California, USA

Now
75 °F

Scattered clouds.


Feels Like: 78 °F
Forecast: 55 / 69 °F
Wind: 8 mph from Southwest

Location: Mather Field

Current Time: May 4, 2016 at 6:38:31 PM

Latest Report: May 4, 2016 at 5:45 PM


Visibility: 10 mi

Pressure: 29.78 "Hg

Humidity: 44%

Dew Point: 52 °F

Location of Arden-ArcadeLocation

Historic Weather in Arden-Arcade — Graph

°F

Arden-Arcade Temperature Yesterday

Maximum temperature yesterday: 82 °F (at 5:45 PM)
Minimum temperature yesterday: 50 °F (at 4:55 AM)
Average temperature yesterday: 67 °F

High & Low Weather Summary for the Past Weeks

 TemperatureHumidityPressure
High84 °F (Apr 19, 3:45 PM)100% (Apr 21, 2:55 AM)30.20 "Hg (Apr 21, 2:55 AM)
Low43 °F (Apr 26, 2:55 AM)17% (Apr 20, 12:45 PM)29.78 "Hg (Apr 30, 3:50 PM)
Average62 °F60%29.92 "Hg
* Reported Apr 19 3:45 PM — May 4 3:45 PM, Arden-Arcade, Weather by CustomWeather, © 2016

Note: Actual official high and low records may vary slightly from our data, if they occured in-between our weather recording intervals... More about our weather records

Advertising

Arden-Arcade Weather History for the Previous 24 Hours

Scroll right to see more
 ConditionsComfort  
Time TempWeatherWind HumidityBarometerVisibility
3:45 PM
Wed, May 4
77 °FScattered clouds.13 mph44%29.80 "Hg10 mi
2:45 PM77 °FMore clouds than sun.7 mph47%29.81 "Hg10 mi
1:45 PM77 °FMore clouds than sun.7 mph47%29.81 "Hg10 mi
12:55 PM72 °FMore clouds than sun.N/A57%29.82 "Hg10 mi
11:45 AM68 °FMore clouds than sun.6 mph64%29.84 "Hg10 mi
10:50 AM66 °FOvercast.5 mph64%29.84 "Hg10 mi
9:55 AM64 °FOvercast.5 mph68%29.84 "Hg10 mi
8:50 AM59 °FOvercast.3 mph82%29.84 "Hg10 mi
7:55 AM57 °FOvercast.5 mph88%29.84 "Hg10 mi
6:55 AM57 °FOvercast.3 mph88%29.83 "Hg10 mi
5:55 AM57 °FPassing clouds.3 mph88%29.82 "Hg10 mi
4:45 AM57 °FPassing clouds.5 mph88%29.82 "Hg10 mi
3:45 AM57 °FPassing clouds.6 mph88%29.83 "Hg10 mi
2:55 AM57 °FPassing clouds.5 mph94%29.84 "Hg10 mi
10:45 PM
Tue, May 3
64 °FPassing clouds.7 mph68%29.87 "Hg10 mi
8:45 PM68 °FPassing clouds.6 mph64%29.86 "Hg10 mi
7:45 PM73 °FPassing clouds.No wind50%29.86 "Hg10 mi
6:45 PM81 °FOvercast.No wind37%29.86 "Hg10 mi
Weather by CustomWeather, © 2016

See weather overviewHow to use our weather pages